UAL789 KDEN-KDCA

Flight info

Callsign UAL789
Flight time 2h 39m
Altitude 35000
Route EMMYS8 ZIRKL LEFAM Q90 WELKY JAVAS WHETT J30 BUCKO FRDMM6
Aircraft A21N/M-SDE3FGHIRWY/LB1

Departure

Time 2026-05-06 15:28
Airport Denver International Airport (KDEN)

Arrival

Time 2026-05-06 18:07
Airport Ronald Reagan Washington National Airport (KDCA)
Time Latitude Longitude Altitude Speed Heading
2026-05-06 15:02 39.85942 -104.67573 5443 ft 0 kts 180°
2026-05-06 15:17 39.85943 -104.67573 5443 ft 1 kts 180°
2026-05-06 15:17 39.85957 -104.67573 5444 ft 2 kts 180°
2026-05-06 15:18 39.85972 -104.67573 5444 ft 2 kts 179°
2026-05-06 15:18 39.85987 -104.67573 5444 ft 2 kts 180°
2026-05-06 15:18 39.86002 -104.67573 5444 ft 2 kts 179°
2026-05-06 15:18 39.86017 -104.67573 5444 ft 2 kts 180°
2026-05-06 15:19 39.86033 -104.67573 5443 ft 2 kts 180°
2026-05-06 15:19 39.86037 -104.67573 5443 ft 0 kts 180°
2026-05-06 15:22 39.86021 -104.67578 5443 ft 4 kts 208°
2026-05-06 15:22 39.86005 -104.67612 5443 ft 5 kts 261°
2026-05-06 15:22 39.86017 -104.67679 5443 ft 9 kts 301°
2026-05-06 15:23 39.86052 -104.67753 5443 ft 8 kts 293°
2026-05-06 15:23 39.86065 -104.67822 5443 ft 8 kts 276°
2026-05-06 15:23 39.86069 -104.67905 5443 ft 8 kts 271°
2026-05-06 15:23 39.86069 -104.67986 5443 ft 9 kts 269°
2026-05-06 15:24 39.86069 -104.68086 5443 ft 11 kts 271°
2026-05-06 15:24 39.86089 -104.68172 5443 ft 10 kts 311°
2026-05-06 15:24 39.86134 -104.68245 5443 ft 9 kts 288°
2026-05-06 15:24 39.86139 -104.68340 5443 ft 11 kts 270°
2026-05-06 15:25 39.86142 -104.68447 5443 ft 10 kts 282°
2026-05-06 15:25 39.86183 -104.68503 5443 ft 7 kts 345°
2026-05-06 15:25 39.86237 -104.68508 5443 ft 7 kts 359°
2026-05-06 15:25 39.86293 -104.68507 5443 ft 10 kts
2026-05-06 15:26 39.86368 -104.68506 5443 ft 9 kts 355°
2026-05-06 15:26 39.86421 -104.68548 5443 ft 7 kts 294°
2026-05-06 15:26 39.86425 -104.68565 5443 ft 0 kts 278°
2026-05-06 15:27 39.86427 -104.68588 5443 ft 5 kts 275°
2026-05-06 15:27 39.86429 -104.68651 5443 ft 7 kts 270°
2026-05-06 15:27 39.86453 -104.68713 5443 ft 7 kts 329°
2026-05-06 15:27 39.86575 -104.68722 5443 ft 47 kts
2026-05-06 15:28 39.87172 -104.68713 5443 ft 121 kts
2026-05-06 15:28 39.88224 -104.68704 5453 ft 179 kts
2026-05-06 15:28 39.89529 -104.68649 6141 ft 186 kts
2026-05-06 15:28 39.90776 -104.68581 7111 ft 184 kts
2026-05-06 15:29 39.92055 -104.68389 7732 ft 190 kts 19°
2026-05-06 15:29 39.93129 -104.67311 8133 ft 207 kts 56°
2026-05-06 15:29 39.93725 -104.65524 8562 ft 223 kts 69°
2026-05-06 15:29 39.94249 -104.63540 8946 ft 242 kts 69°
2026-05-06 15:30 39.94765 -104.61331 9321 ft 264 kts 77°
2026-05-06 15:30 39.95008 -104.58903 9803 ft 277 kts 86°
2026-05-06 15:30 39.95074 -104.56375 9992 ft 281 kts 88°
2026-05-06 15:30 39.95121 -104.53842 9994 ft 280 kts 87°
2026-05-06 15:31 39.95176 -104.51269 9997 ft 281 kts 87°
2026-05-06 15:31 39.95238 -104.48723 9997 ft 281 kts 87°
2026-05-06 15:31 39.95307 -104.46175 9995 ft 281 kts 86°
2026-05-06 15:32 39.95349 -104.41078 9996 ft 282 kts 93°
2026-05-06 15:32 39.95084 -104.38541 10037 ft 286 kts 100°
2026-05-06 15:32 39.94589 -104.35973 10374 ft 301 kts 104°
2026-05-06 15:32 39.93999 -104.33232 10834 ft 318 kts 105°
2026-05-06 15:33 39.93389 -104.30427 11489 ft 326 kts 105°
2026-05-06 15:33 39.92772 -104.27586 11882 ft 329 kts 105°
2026-05-06 15:33 39.92148 -104.24704 11973 ft 331 kts 105°
2026-05-06 15:33 39.91544 -104.21784 11985 ft 331 kts 103°
2026-05-06 15:34 39.91079 -104.18822 12032 ft 335 kts 100°
2026-05-06 15:34 39.90660 -104.15824 12579 ft 342 kts 100°
2026-05-06 15:34 39.90239 -104.12791 13456 ft 341 kts 100°
2026-05-06 15:34 39.89817 -104.09756 14148 ft 346 kts 101°
2026-05-06 15:35 39.89381 -104.06664 14848 ft 351 kts 101°
2026-05-06 15:35 39.88930 -104.03490 15532 ft 357 kts 101°
2026-05-06 15:35 39.88478 -104.00294 16140 ft 363 kts 100°
2026-05-06 15:35 39.88018 -103.97053 16804 ft 368 kts 100°
2026-05-06 15:36 39.87572 -103.93762 17423 ft 373 kts 97°
2026-05-06 15:36 39.87341 -103.90344 17995 ft 379 kts 91°
2026-05-06 15:36 39.87406 -103.86922 18571 ft 384 kts 84°
2026-05-06 15:36 39.87642 -103.83450 19161 ft 389 kts 83°
2026-05-06 15:37 39.87916 -103.79884 19715 ft 395 kts 83°
2026-05-06 15:37 39.88183 -103.76316 20239 ft 401 kts 84°
2026-05-06 15:37 39.88483 -103.72685 20779 ft 407 kts 81°
2026-05-06 15:37 39.88886 -103.69046 21353 ft 411 kts 81°
2026-05-06 15:38 39.89320 -103.65314 21909 ft 415 kts 81°
2026-05-06 15:38 39.89753 -103.61595 22432 ft 420 kts 81°
2026-05-06 15:38 39.90190 -103.57819 22944 ft 425 kts 81°
2026-05-06 15:38 39.90634 -103.53960 23444 ft 430 kts 82°
2026-05-06 15:39 39.91074 -103.50101 23942 ft 434 kts 82°
2026-05-06 15:39 39.91516 -103.46206 24378 ft 439 kts 82°
2026-05-06 15:39 39.91963 -103.42249 24802 ft 444 kts 82°
2026-05-06 15:39 39.92415 -103.38238 25271 ft 447 kts 82°
2026-05-06 15:40 39.92868 -103.34220 25700 ft 451 kts 82°
2026-05-06 15:40 39.93323 -103.30164 26118 ft 454 kts 83°
2026-05-06 15:40 39.93778 -103.26096 26530 ft 457 kts 82°
2026-05-06 15:40 39.94240 -103.21938 26919 ft 461 kts 83°
2026-05-06 15:41 39.94700 -103.17804 27294 ft 464 kts 83°
2026-05-06 15:41 39.95162 -103.13641 27668 ft 467 kts 83°
2026-05-06 15:41 39.95623 -103.09443 28016 ft 470 kts 83°
2026-05-06 15:41 39.96085 -103.05237 28374 ft 473 kts 83°
2026-05-06 15:42 39.96558 -103.00935 28745 ft 475 kts 83°
2026-05-06 15:42 39.97026 -102.96642 29079 ft 479 kts 83°
2026-05-06 15:42 39.97493 -102.92343 29401 ft 482 kts 83°
2026-05-06 15:42 39.97957 -102.88040 29820 ft 482 kts 83°
2026-05-06 15:43 39.98423 -102.83731 30270 ft 481 kts 84°
2026-05-06 15:43 39.98891 -102.79384 30682 ft 480 kts 84°
2026-05-06 15:43 39.99350 -102.75099 31048 ft 480 kts 84°
2026-05-06 15:43 39.99811 -102.70770 31405 ft 480 kts 84°
2026-05-06 15:44 40.00267 -102.66464 31754 ft 479 kts 83°
2026-05-06 15:44 40.00720 -102.62183 32088 ft 479 kts 83°
2026-05-06 15:44 40.01178 -102.57848 32363 ft 479 kts 83°
2026-05-06 15:44 40.01626 -102.53585 32633 ft 478 kts 83°
2026-05-06 15:45 40.02081 -102.49248 32887 ft 479 kts 83°
2026-05-06 15:45 40.02527 -102.44970 33146 ft 479 kts 83°
2026-05-06 15:45 40.02975 -102.40679 33380 ft 480 kts 83°
2026-05-06 15:45 40.03423 -102.36341 33590 ft 481 kts 83°
2026-05-06 15:46 40.03875 -102.31982 33810 ft 482 kts 84°
2026-05-06 15:46 40.04320 -102.27655 34043 ft 483 kts 83°
2026-05-06 15:46 40.04763 -102.23327 34285 ft 484 kts 83°
2026-05-06 15:46 40.05207 -102.18988 34503 ft 485 kts 83°
2026-05-06 15:47 40.05655 -102.14582 34724 ft 485 kts 83°
2026-05-06 15:47 40.06098 -102.10219 34952 ft 486 kts 83°
2026-05-06 15:47 40.06538 -102.05860 35107 ft 487 kts 83°
2026-05-06 15:47 40.06984 -102.01438 35118 ft 488 kts 83°
2026-05-06 15:48 40.07867 -101.92615 35118 ft 489 kts 83°
2026-05-06 15:48 40.08735 -101.83861 35129 ft 489 kts 84°
2026-05-06 15:49 40.09604 -101.75041 35130 ft 491 kts 84°
2026-05-06 15:49 40.10465 -101.66209 35126 ft 490 kts 84°
2026-05-06 15:50 40.11324 -101.57321 35125 ft 490 kts 83°
2026-05-06 15:50 40.12176 -101.48461 35129 ft 491 kts 83°
2026-05-06 15:51 40.13016 -101.39628 35125 ft 492 kts 84°
2026-05-06 15:51 40.13472 -101.30705 35125 ft 491 kts 90°
2026-05-06 15:52 40.13704 -101.21800 35130 ft 492 kts 90°
2026-05-06 15:52 40.13932 -101.12834 35132 ft 492 kts 90°
2026-05-06 15:53 40.14160 -101.03939 35134 ft 492 kts 90°
2026-05-06 15:53 40.14388 -100.94979 35128 ft 492 kts 90°
2026-05-06 15:54 40.14609 -100.86021 35132 ft 492 kts 90°
2026-05-06 15:54 40.14822 -100.77118 35138 ft 492 kts 90°
2026-05-06 15:55 40.15029 -100.68147 35137 ft 493 kts 90°
2026-05-06 15:55 40.15232 -100.59183 35150 ft 493 kts 90°
2026-05-06 15:56 40.15425 -100.50204 35148 ft 495 kts 90°
2026-05-06 15:56 40.15612 -100.41241 35147 ft 496 kts 90°
2026-05-06 15:57 40.15794 -100.32216 35142 ft 496 kts 91°
2026-05-06 15:57 40.15969 -100.23231 35139 ft 496 kts 91°
2026-05-06 15:58 40.16135 -100.14186 35148 ft 496 kts 91°
2026-05-06 15:58 40.16293 -100.05206 35145 ft 497 kts 91°
2026-05-06 15:59 40.16448 -99.96128 35148 ft 498 kts 91°
2026-05-06 15:59 40.16597 -99.87045 35143 ft 498 kts 91°
2026-05-06 16:00 40.16734 -99.78008 35139 ft 500 kts 91°
2026-05-06 16:00 40.16868 -99.68903 35142 ft 500 kts 91°
2026-05-06 16:01 40.16995 -99.59813 35135 ft 500 kts 91°
2026-05-06 16:01 40.17115 -99.50738 35134 ft 501 kts 91°
2026-05-06 16:02 40.17224 -99.41642 35130 ft 502 kts 91°
2026-05-06 16:02 40.17329 -99.32505 35128 ft 502 kts 92°
2026-05-06 16:03 40.17428 -99.23370 35125 ft 503 kts 92°
2026-05-06 16:03 40.17519 -99.14195 35125 ft 503 kts 92°
2026-05-06 16:04 40.17603 -99.05024 35123 ft 504 kts 92°
2026-05-06 16:04 40.17680 -98.95843 35129 ft 504 kts 92°
2026-05-06 16:05 40.17748 -98.86700 35129 ft 505 kts 92°
2026-05-06 16:05 40.17810 -98.77471 35129 ft 506 kts 92°
2026-05-06 16:06 40.17863 -98.68299 35131 ft 506 kts 92°
2026-05-06 16:06 40.17912 -98.59071 35131 ft 507 kts 92°
2026-05-06 16:07 40.17953 -98.49866 35133 ft 508 kts 92°
2026-05-06 16:07 40.17986 -98.40574 35132 ft 509 kts 92°
2026-05-06 16:08 40.18011 -98.31329 35129 ft 511 kts 93°
2026-05-06 16:08 40.18034 -98.22045 35132 ft 511 kts 93°
2026-05-06 16:09 40.18041 -98.12736 35131 ft 512 kts 93°
2026-05-06 16:09 40.18045 -98.03397 35131 ft 512 kts 93°
2026-05-06 16:10 40.18044 -97.94102 35129 ft 512 kts 93°
2026-05-06 16:10 40.18030 -97.84779 35129 ft 513 kts 93°
2026-05-06 16:11 40.18012 -97.75439 35137 ft 515 kts 94°
2026-05-06 16:11 40.17985 -97.66096 35147 ft 516 kts 93°
2026-05-06 16:12 40.17954 -97.56728 35154 ft 516 kts 94°
2026-05-06 16:12 40.17912 -97.47299 35156 ft 517 kts 93°
2026-05-06 16:13 40.17863 -97.37914 35148 ft 519 kts 94°
2026-05-06 16:13 40.17809 -97.28455 35138 ft 519 kts 95°
2026-05-06 16:14 40.17739 -97.19012 35134 ft 520 kts 94°
2026-05-06 16:14 40.17670 -97.09543 35132 ft 521 kts 95°
2026-05-06 16:15 40.17589 -97.00096 35133 ft 521 kts 95°
2026-05-06 16:15 40.17498 -96.90577 35138 ft 522 kts 95°
2026-05-06 16:16 40.17401 -96.81104 35144 ft 523 kts 94°
2026-05-06 16:16 40.17297 -96.71571 35147 ft 525 kts 94°
2026-05-06 16:17 40.17190 -96.62066 35143 ft 523 kts 95°
2026-05-06 16:17 40.17065 -96.52519 35139 ft 526 kts 95°
2026-05-06 16:18 40.16936 -96.42990 35131 ft 526 kts 95°
2026-05-06 16:18 40.16922 -96.33431 35127 ft 529 kts 91°
2026-05-06 16:19 40.17796 -96.23867 35129 ft 532 kts 81°
2026-05-06 16:19 40.19526 -96.14398 35131 ft 533 kts 76°
2026-05-06 16:20 40.21362 -96.04990 35132 ft 533 kts 76°
2026-05-06 16:20 40.23149 -95.95579 35133 ft 534 kts 77°
2026-05-06 16:21 40.24902 -95.86163 35133 ft 535 kts 76°
2026-05-06 16:21 40.26654 -95.76672 35136 ft 535 kts 77°
2026-05-06 16:22 40.28392 -95.67181 35136 ft 537 kts 77°
2026-05-06 16:22 40.30128 -95.57684 35135 ft 538 kts 77°
2026-05-06 16:23 40.31858 -95.48165 35131 ft 536 kts 77°
2026-05-06 16:23 40.33585 -95.38615 34968 ft 539 kts 77°
2026-05-06 16:24 40.35313 -95.29008 35255 ft 540 kts 78°
2026-05-06 16:24 40.37020 -95.19484 35152 ft 539 kts 78°
2026-05-06 16:25 40.37867 -95.14712 34965 ft 540 kts 77°
2026-05-06 16:25 40.38725 -95.09917 35046 ft 541 kts 77°
2026-05-06 16:25 40.39574 -95.05121 35216 ft 539 kts 77°
2026-05-06 16:25 40.40431 -95.00295 35002 ft 539 kts 78°
2026-05-06 16:26 40.42126 -94.90704 35088 ft 541 kts 78°
2026-05-06 16:26 40.43805 -94.81100 35264 ft 540 kts 78°
2026-05-06 16:27 40.45487 -94.71471 35172 ft 540 kts 77°
2026-05-06 16:27 40.46321 -94.66668 34930 ft 540 kts 78°
2026-05-06 16:27 40.47149 -94.61873 35156 ft 542 kts 77°
2026-05-06 16:28 40.48822 -94.52195 35128 ft 542 kts 77°
2026-05-06 16:28 40.50486 -94.42516 35111 ft 542 kts 77°
2026-05-06 16:29 40.52131 -94.32870 35102 ft 544 kts 78°
2026-05-06 16:29 40.53780 -94.23193 35106 ft 543 kts 78°
2026-05-06 16:30 40.55145 -94.15086 35106 ft 542 kts 78°
2026-05-06 16:30 40.57044 -94.03796 35112 ft 544 kts 78°
2026-05-06 16:31 40.58660 -93.94109 35114 ft 543 kts 78°
2026-05-06 16:31 40.60277 -93.84380 35115 ft 544 kts 78°
2026-05-06 16:32 40.61878 -93.74681 35114 ft 544 kts 78°
2026-05-06 16:32 40.63483 -93.64928 35108 ft 544 kts 79°
2026-05-06 16:33 40.65060 -93.55219 35101 ft 544 kts 79°
2026-05-06 16:34 40.67321 -93.40554 35101 ft 545 kts 79°
2026-05-06 16:34 40.68811 -93.30735 35094 ft 545 kts 80°
2026-05-06 16:35 40.70296 -93.20954 35099 ft 546 kts 80°
2026-05-06 16:35 40.71777 -93.11096 35097 ft 546 kts 80°
2026-05-06 16:36 40.73248 -93.01298 35106 ft 546 kts 80°
2026-05-06 16:36 40.74711 -92.91436 35111 ft 547 kts 80°
2026-05-06 16:37 40.76160 -92.81634 35114 ft 546 kts 80°
2026-05-06 16:37 40.77274 -92.71744 35106 ft 546 kts 85°
2026-05-06 16:38 40.78139 -92.61755 35100 ft 546 kts 85°
2026-05-06 16:38 40.78998 -92.51826 35096 ft 546 kts 84°
2026-05-06 16:39 40.79872 -92.41878 35090 ft 547 kts 85°
2026-05-06 16:39 40.80304 -92.36905 34957 ft 548 kts 85°
2026-05-06 16:39 40.80743 -92.31870 34934 ft 548 kts 85°
2026-05-06 16:40 40.81607 -92.21847 35046 ft 547 kts 86°
2026-05-06 16:40 40.82454 -92.11881 35086 ft 549 kts 85°
2026-05-06 16:41 40.83302 -92.01844 35087 ft 548 kts 86°
2026-05-06 16:41 40.84138 -91.91848 35109 ft 548 kts 85°
2026-05-06 16:42 40.84963 -91.81868 35098 ft 550 kts 85°
2026-05-06 16:42 40.85791 -91.71795 35080 ft 549 kts 85°
2026-05-06 16:43 40.86602 -91.61767 35102 ft 551 kts 85°
2026-05-06 16:43 40.87410 -91.51730 35089 ft 551 kts 85°
2026-05-06 16:44 40.88208 -91.41621 35084 ft 551 kts 86°
2026-05-06 16:44 40.88992 -91.31558 35069 ft 552 kts 86°
2026-05-06 16:45 40.89772 -91.21459 35070 ft 552 kts 86°
2026-05-06 16:45 40.90543 -91.11390 35065 ft 552 kts 86°
2026-05-06 16:46 40.91307 -91.01305 35064 ft 553 kts 86°
2026-05-06 16:46 40.92069 -90.91169 35069 ft 555 kts 86°
2026-05-06 16:47 40.92802 -90.81159 35067 ft 555 kts 86°
2026-05-06 16:47 40.93551 -90.70936 35063 ft 557 kts 86°
2026-05-06 16:48 40.94286 -90.60762 35064 ft 558 kts 86°
2026-05-06 16:48 40.95015 -90.50581 35065 ft 556 kts 86°
2026-05-06 16:49 40.95724 -90.40391 35071 ft 558 kts 86°
2026-05-06 16:49 40.96440 -90.30159 35064 ft 557 kts 88°
2026-05-06 16:50 40.97129 -90.19984 35061 ft 557 kts 87°
2026-05-06 16:50 40.97820 -90.09799 35055 ft 557 kts 86°
2026-05-06 16:51 40.98499 -89.99539 35049 ft 558 kts 87°
2026-05-06 16:51 40.99171 -89.89333 35042 ft 559 kts 86°
2026-05-06 16:52 40.99843 -89.79073 35041 ft 559 kts 87°
2026-05-06 16:52 41.00503 -89.68754 35037 ft 559 kts 86°
2026-05-06 16:53 41.01150 -89.58491 35034 ft 561 kts 87°
2026-05-06 16:53 41.01786 -89.48238 35031 ft 560 kts 87°
2026-05-06 16:54 41.02411 -89.37981 35029 ft 560 kts 86°
2026-05-06 16:54 41.03036 -89.27684 35026 ft 561 kts 88°
2026-05-06 16:55 41.03651 -89.17365 35027 ft 559 kts 87°
2026-05-06 16:55 41.04260 -89.07098 35037 ft 561 kts 88°
2026-05-06 16:56 41.04847 -88.96823 34998 ft 560 kts 88°
2026-05-06 16:56 41.05430 -88.86496 35037 ft 561 kts 87°
2026-05-06 16:57 41.06005 -88.76252 34997 ft 560 kts 88°
2026-05-06 16:57 41.06567 -88.65941 35055 ft 562 kts 87°
2026-05-06 16:58 41.07126 -88.55630 35035 ft 560 kts 87°
2026-05-06 16:58 41.07675 -88.45319 35031 ft 559 kts 88°
2026-05-06 16:59 41.08212 -88.35061 35009 ft 560 kts 86°
2026-05-06 16:59 41.08746 -88.24758 35013 ft 561 kts 88°
2026-05-06 17:00 41.09267 -88.14444 35008 ft 561 kts 88°
2026-05-06 17:00 41.09771 -88.04127 35032 ft 561 kts 88°
2026-05-06 17:01 41.10283 -87.93766 35014 ft 560 kts 88°
2026-05-06 17:01 41.10773 -87.83446 34999 ft 560 kts 88°
2026-05-06 17:02 41.11251 -87.73179 35038 ft 559 kts 88°
2026-05-06 17:02 41.11729 -87.62867 34996 ft 561 kts 88°
2026-05-06 17:03 41.12198 -87.52521 35011 ft 560 kts 88°
2026-05-06 17:03 41.12648 -87.42220 35001 ft 561 kts 88°
2026-05-06 17:04 41.13103 -87.31875 34989 ft 560 kts 88°
2026-05-06 17:04 41.13539 -87.21570 34991 ft 562 kts 88°
2026-05-06 17:05 41.13969 -87.11240 35005 ft 561 kts 88°
2026-05-06 17:05 41.14389 -87.00877 34985 ft 560 kts 89°
2026-05-06 17:06 41.14795 -86.90585 34989 ft 561 kts 88°
2026-05-06 17:06 41.15192 -86.80248 34984 ft 560 kts 89°
2026-05-06 17:07 41.15585 -86.69891 34995 ft 561 kts 89°
2026-05-06 17:07 41.15415 -86.59637 34980 ft 556 kts 99°
2026-05-06 17:08 41.14053 -86.49575 34983 ft 548 kts 111°
2026-05-06 17:08 41.11827 -86.40004 34994 ft 544 kts 115°
2026-05-06 17:09 41.09486 -86.30421 34962 ft 544 kts 116°
2026-05-06 17:09 41.07191 -86.20811 34988 ft 547 kts 115°
2026-05-06 17:10 41.04926 -86.11221 34993 ft 545 kts 115°
2026-05-06 17:10 41.03806 -86.06486 35146 ft 547 kts 115°
2026-05-06 17:10 41.02670 -86.01676 34952 ft 545 kts 116°
2026-05-06 17:10 41.01532 -85.96886 35066 ft 546 kts 115°
2026-05-06 17:11 41.00383 -85.92067 35036 ft 546 kts 115°
2026-05-06 17:11 40.98092 -85.82474 35021 ft 546 kts 115°
2026-05-06 17:12 40.95786 -85.72877 34991 ft 549 kts 115°
2026-05-06 17:12 40.93475 -85.63274 34989 ft 548 kts 115°
2026-05-06 17:13 40.91152 -85.53675 34993 ft 548 kts 115°
2026-05-06 17:13 40.88826 -85.44074 34996 ft 547 kts 115°
2026-05-06 17:14 40.86522 -85.34639 34995 ft 546 kts 116°
2026-05-06 17:14 40.84179 -85.25060 34998 ft 545 kts 116°
2026-05-06 17:15 40.81845 -85.15572 34994 ft 545 kts 116°
2026-05-06 17:15 40.79489 -85.06057 34994 ft 547 kts 116°
2026-05-06 17:16 40.77130 -84.96515 34984 ft 545 kts 116°
2026-05-06 17:16 40.74768 -84.87026 34985 ft 545 kts 116°
2026-05-06 17:17 40.72401 -84.77558 34983 ft 545 kts 116°
2026-05-06 17:17 40.70022 -84.68077 34981 ft 545 kts 116°
2026-05-06 17:18 40.67637 -84.58604 34980 ft 545 kts 116°
2026-05-06 17:18 40.65237 -84.49107 34972 ft 544 kts 116°
2026-05-06 17:19 40.62850 -84.39714 34972 ft 544 kts 116°
2026-05-06 17:19 40.60430 -84.30215 34967 ft 543 kts 117°
2026-05-06 17:20 40.58015 -84.20775 34973 ft 543 kts 117°
2026-05-06 17:20 40.55605 -84.11397 34971 ft 542 kts 116°
2026-05-06 17:21 40.53178 -84.01998 34975 ft 544 kts 117°
2026-05-06 17:21 40.50749 -83.92593 34974 ft 543 kts 117°
2026-05-06 17:22 40.48317 -83.83232 34972 ft 542 kts 116°
2026-05-06 17:22 40.45868 -83.73859 34974 ft 544 kts 117°
2026-05-06 17:23 40.43409 -83.64472 34967 ft 544 kts 116°
2026-05-06 17:23 40.40959 -83.55126 34963 ft 543 kts 117°
2026-05-06 17:24 40.38476 -83.45725 34959 ft 544 kts 117°
2026-05-06 17:24 40.35995 -83.36361 34961 ft 544 kts 116°
2026-05-06 17:25 40.33516 -83.27013 34963 ft 542 kts 117°
2026-05-06 17:25 40.31020 -83.17667 34965 ft 542 kts 117°
2026-05-06 17:26 40.28513 -83.08336 34964 ft 543 kts 117°
2026-05-06 17:26 40.26001 -82.98991 34960 ft 542 kts 117°
2026-05-06 17:27 40.23502 -82.89732 34958 ft 541 kts 117°
2026-05-06 17:27 40.20984 -82.80445 34956 ft 542 kts 117°
2026-05-06 17:28 40.18446 -82.71121 34952 ft 543 kts 116°
2026-05-06 17:28 40.15915 -82.61830 34949 ft 541 kts 117°
2026-05-06 17:29 40.13315 -82.52659 34944 ft 540 kts 119°
2026-05-06 17:29 40.10583 -82.43519 34944 ft 540 kts 119°
2026-05-06 17:30 40.07838 -82.34341 34941 ft 539 kts 119°
2026-05-06 17:30 40.05130 -82.25249 34938 ft 539 kts 119°
2026-05-06 17:31 40.02409 -82.16140 34938 ft 539 kts 120°
2026-05-06 17:31 39.99692 -82.07072 34936 ft 539 kts 120°
2026-05-06 17:32 39.96945 -81.97951 34940 ft 539 kts 120°
2026-05-06 17:32 39.94219 -81.88907 34930 ft 537 kts 120°
2026-05-06 17:33 39.91458 -81.79819 34930 ft 538 kts 119°
2026-05-06 17:33 39.88708 -81.70765 34930 ft 538 kts 119°
2026-05-06 17:34 39.85943 -81.61699 34931 ft 539 kts 119°
2026-05-06 17:34 39.83170 -81.52636 34924 ft 538 kts 119°
2026-05-06 17:35 39.80400 -81.43643 34920 ft 538 kts 118°
2026-05-06 17:35 39.77616 -81.34589 34915 ft 536 kts 119°
2026-05-06 17:36 39.73439 -81.21096 34906 ft 537 kts 120°
2026-05-06 17:36 39.70651 -81.12123 34900 ft 535 kts 119°
2026-05-06 17:37 39.67880 -81.03223 34902 ft 535 kts 120°
2026-05-06 17:37 39.65081 -80.94282 34902 ft 535 kts 120°
2026-05-06 17:38 39.62268 -80.85318 34896 ft 535 kts 119°
2026-05-06 17:38 39.59472 -80.76413 34903 ft 535 kts 119°
2026-05-06 17:39 39.56647 -80.67471 34900 ft 535 kts 119°
2026-05-06 17:39 39.53829 -80.58581 34908 ft 534 kts 119°
2026-05-06 17:40 39.51001 -80.49680 34901 ft 535 kts 120°
2026-05-06 17:40 39.48181 -80.40836 34894 ft 532 kts 119°
2026-05-06 17:41 39.45332 -80.31927 34890 ft 533 kts 120°
2026-05-06 17:41 39.42500 -80.23117 34866 ft 534 kts 120°
2026-05-06 17:42 39.41062 -80.18645 34578 ft 533 kts 120°
2026-05-06 17:42 39.39663 -80.14285 34286 ft 529 kts 121°
2026-05-06 17:42 39.38247 -80.09892 34000 ft 524 kts 120°
2026-05-06 17:42 39.36847 -80.05549 33684 ft 521 kts 120°
2026-05-06 17:43 39.35460 -80.01273 33310 ft 522 kts 120°
2026-05-06 17:43 39.34048 -79.96922 32858 ft 522 kts 120°
2026-05-06 17:43 39.32639 -79.92590 32289 ft 522 kts 120°
2026-05-06 17:43 39.31270 -79.88245 31689 ft 525 kts 116°
2026-05-06 17:44 39.30095 -79.83748 31035 ft 531 kts 112°
2026-05-06 17:44 39.29205 -79.79121 30527 ft 531 kts 105°
2026-05-06 17:44 39.28247 -79.69809 30472 ft 527 kts 98°
2026-05-06 17:45 39.27609 -79.60394 30354 ft 526 kts 98°
2026-05-06 17:45 39.27252 -79.55695 30235 ft 525 kts 99°
2026-05-06 17:45 39.26871 -79.50996 29982 ft 525 kts 99°
2026-05-06 17:46 39.26485 -79.46306 29545 ft 525 kts 98°
2026-05-06 17:46 39.26104 -79.41679 28959 ft 526 kts 98°
2026-05-06 17:46 39.25715 -79.36976 28287 ft 527 kts 98°
2026-05-06 17:46 39.25330 -79.32245 27585 ft 529 kts 99°
2026-05-06 17:47 39.24939 -79.27531 27048 ft 524 kts 99°
2026-05-06 17:47 39.24572 -79.23126 26589 ft 519 kts 99°
2026-05-06 17:47 39.24183 -79.18516 26113 ft 513 kts 99°
2026-05-06 17:47 39.23799 -79.13981 25632 ft 508 kts 99°
2026-05-06 17:48 39.23422 -79.09480 25144 ft 504 kts 99°
2026-05-06 17:48 39.23034 -79.04993 24653 ft 500 kts 99°
2026-05-06 17:48 39.22648 -79.00539 24160 ft 496 kts 99°
2026-05-06 17:48 39.22271 -78.96182 23677 ft 492 kts 99°
2026-05-06 17:49 39.21866 -78.91780 23189 ft 488 kts 99°
2026-05-06 17:49 39.21449 -78.87510 22720 ft 484 kts 100°
2026-05-06 17:49 39.21025 -78.83190 22253 ft 481 kts 100°
2026-05-06 17:49 39.20605 -78.78927 21788 ft 477 kts 100°
2026-05-06 17:50 39.20192 -78.74712 21311 ft 473 kts 99°
2026-05-06 17:50 39.19787 -78.70563 20879 ft 468 kts 99°
2026-05-06 17:50 39.19377 -78.66398 20420 ft 464 kts 99°
2026-05-06 17:50 39.18970 -78.62283 19938 ft 460 kts 99°
2026-05-06 17:51 39.18573 -78.58254 19465 ft 451 kts 99°
2026-05-06 17:51 39.18182 -78.54279 19014 ft 443 kts 99°
2026-05-06 17:51 39.17795 -78.50399 18558 ft 439 kts 99°
2026-05-06 17:51 39.17406 -78.46484 18093 ft 435 kts 99°
2026-05-06 17:52 39.17017 -78.42620 17639 ft 432 kts 99°
2026-05-06 17:52 39.16613 -78.38856 17182 ft 428 kts 101°
2026-05-06 17:52 39.16010 -78.35121 16777 ft 422 kts 107°
2026-05-06 17:52 39.15197 -78.31531 16765 ft 416 kts 111°
2026-05-06 17:53 39.14300 -78.27940 16476 ft 417 kts 112°
2026-05-06 17:53 39.13394 -78.24392 16012 ft 415 kts 112°
2026-05-06 17:53 39.12499 -78.20853 15545 ft 412 kts 111°
2026-05-06 17:53 39.11632 -78.17390 15092 ft 409 kts 111°
2026-05-06 17:54 39.10762 -78.13896 14661 ft 404 kts 111°
2026-05-06 17:54 39.09912 -78.10501 14212 ft 395 kts 111°
2026-05-06 17:54 39.09070 -78.07173 13723 ft 384 kts 111°
2026-05-06 17:54 39.08251 -78.03961 13261 ft 375 kts 111°
2026-05-06 17:55 39.07444 -78.00822 12818 ft 365 kts 111°
2026-05-06 17:55 39.06660 -77.97752 12362 ft 355 kts 112°
2026-05-06 17:55 39.05905 -77.94792 11986 ft 344 kts 112°
2026-05-06 17:55 39.05180 -77.91956 11864 ft 330 kts 112°
2026-05-06 17:56 39.04451 -77.89128 11761 ft 329 kts 112°
2026-05-06 17:56 39.03733 -77.86359 11656 ft 327 kts 112°
2026-05-06 17:56 39.03009 -77.83553 11456 ft 327 kts 112°
2026-05-06 17:56 39.02304 -77.80806 11194 ft 324 kts 112°
2026-05-06 17:57 39.01584 -77.78016 10826 ft 325 kts 112°
2026-05-06 17:57 39.00882 -77.75300 10530 ft 320 kts 112°
2026-05-06 17:57 39.00172 -77.72551 10144 ft 320 kts 112°
2026-05-06 17:57 38.99475 -77.69862 9823 ft 317 kts 112°
2026-05-06 17:58 38.98775 -77.67158 9512 ft 313 kts 112°
2026-05-06 17:58 38.98058 -77.64495 9160 ft 310 kts 114°
2026-05-06 17:58 38.97307 -77.61916 8826 ft 308 kts 115°
2026-05-06 17:58 38.96552 -77.59372 8515 ft 305 kts 115°
2026-05-06 17:59 38.95792 -77.56814 8187 ft 302 kts 114°
2026-05-06 17:59 38.95042 -77.54291 8046 ft 303 kts 114°
2026-05-06 17:59 38.94441 -77.51702 7943 ft 306 kts 96°
2026-05-06 17:59 38.94709 -77.48989 7640 ft 306 kts 68°
2026-05-06 18:00 38.95593 -77.46540 7363 ft 302 kts 59°
2026-05-06 18:00 38.96582 -77.44175 7041 ft 299 kts 59°
2026-05-06 18:00 38.97522 -77.41795 6728 ft 297 kts 62°
2026-05-06 18:00 38.98399 -77.39370 6345 ft 298 kts 64°
2026-05-06 18:01 38.99189 -77.37053 6039 ft 295 kts 64°
2026-05-06 18:01 39.00030 -77.34541 5684 ft 293 kts 65°
2026-05-06 18:01 39.00823 -77.32162 5385 ft 289 kts 66°
2026-05-06 18:01 39.01626 -77.29763 5095 ft 285 kts 66°
2026-05-06 18:02 39.02404 -77.27444 4825 ft 281 kts 66°
2026-05-06 18:02 39.03083 -77.25111 4528 ft 277 kts 81°
2026-05-06 18:02 39.02912 -77.22755 4222 ft 262 kts 121°
2026-05-06 18:02 39.01829 -77.21004 3966 ft 242 kts 147°
2026-05-06 18:03 39.00511 -77.19715 3742 ft 234 kts 151°
2026-05-06 18:03 38.99212 -77.18439 3491 ft 231 kts 149°
2026-05-06 18:03 38.98000 -77.17127 3247 ft 228 kts 145°
2026-05-06 18:03 38.96854 -77.15757 3067 ft 218 kts 144°
2026-05-06 18:04 38.95739 -77.14468 2763 ft 212 kts 146°
2026-05-06 18:04 38.94633 -77.13242 2432 ft 206 kts 147°
2026-05-06 18:04 38.93571 -77.12074 2090 ft 192 kts 149°
2026-05-06 18:04 38.92498 -77.11221 1810 ft 173 kts 160°
2026-05-06 18:05 38.91477 -77.10524 1549 ft 160 kts 155°
2026-05-06 18:05 38.90742 -77.09486 1319 ft 158 kts 127°
2026-05-06 18:05 38.90299 -77.08169 1144 ft 160 kts 121°
2026-05-06 18:05 38.89758 -77.06992 939 ft 153 kts 136°
2026-05-06 18:06 38.89074 -77.05933 742 ft 150 kts 140°
2026-05-06 18:06 38.88351 -77.04975 537 ft 148 kts 146°
2026-05-06 18:06 38.87532 -77.04243 293 ft 140 kts 160°
2026-05-06 18:06 38.86594 -77.03925 121 ft 137 kts 176°
2026-05-06 18:07 38.85651 -77.03837 24 ft 133 kts 179°
2026-05-06 18:07 38.84984 -77.03766 22 ft 51 kts 174°
2026-05-06 18:07 38.84875 -77.03750 22 ft 5 kts 174°
2026-05-06 18:07 38.84775 -77.03738 22 ft 20 kts 175°
2026-05-06 18:08 38.84623 -77.03722 21 ft 22 kts 175°
2026-05-06 18:08 38.84477 -77.03710 20 ft 17 kts 185°
2026-05-06 18:08 38.84398 -77.03776 20 ft 12 kts 248°
2026-05-06 18:08 38.84383 -77.03862 20 ft 8 kts 261°
2026-05-06 18:09 38.84389 -77.03934 20 ft 12 kts 297°
2026-05-06 18:09 38.84466 -77.03999 21 ft 13 kts 344°
2026-05-06 18:09 38.84558 -77.04009 22 ft 14 kts 16°
2026-05-06 18:09 38.84654 -77.03954 22 ft 15 kts 24°
2026-05-06 18:10 38.84745 -77.03934 23 ft 12 kts 351°
2026-05-06 18:10 38.84833 -77.03945 23 ft 13 kts 354°
2026-05-06 18:10 38.84922 -77.03956 24 ft 12 kts 356°
2026-05-06 18:10 38.85007 -77.03966 24 ft 11 kts 353°
2026-05-06 18:11 38.85078 -77.03975 25 ft 9 kts 355°
2026-05-06 18:11 38.85141 -77.03979 25 ft 6 kts 358°
2026-05-06 18:11 38.85174 -77.03989 25 ft 4 kts 329°
2026-05-06 18:11 38.85192 -77.04018 25 ft 3 kts 297°
2026-05-06 18:12 38.85200 -77.04039 26 ft 0 kts 296°